Wind_Speed
42 43 44 45 45 46 47 47 47 47 47 47 46 46 45 45 44 43 43 42 41 40 40 39 38 37 36 35 34 33 32 32 33 33 34 35 36 36 36 35 34 32 31 30 29 29 28 28 27 27 26 25 25 24 24 23 22 19 17 14 13 12 12 12 12 13 14 15 16 16 17 17 18 18 18 19 19 19 18 18 18 18 17 17 17 17
42 43 44 44 45 45 46 46 46 45 45 45 45 44 43 43 43 42 42 41 40 39 38 38 37 36 35 34 33 32 32 32 33 33 34 35 36 36 36 35 34 32 31 30 29 28 27 26 26 25 24 24 24 24 23 22 19 17 15 13 12 11 12 12 13 14 15 16 17 17 18 18 18 18 18 18 18 18 18 18 18 18 17 17 17 17
42 43 44 44 44 44 45 45 45 44 44 43 43 43 42 42 41 41 41 40 39 39 38 37 36 35 35 34 33 32 32 32 33 33 34 35 36 36 36 35 33 32 30 29 28 27 26 24 23 23 23 23 23 23 21 20 17 15 13 12 11 11 12 13 14 15 16 17 18 18 18 18 18 18 18 18 18 18 18 18 18 18 17 17 17 17
41 42 43 43 44 44 43 44 43 43 42 42 41 41 41 41 40 40 40 39 38 38 37 36 36 35 34 33 32 32 32 32 33 33 34 35 35 35 35 34 33 31 30 28 26 25 24 22 22 22 23 23 23 21 20 18 16 14 12 12 11 12 12 13 15 16 17 18 18 19 19 18 18 18 18 18 18 18 18 18 18 18 18 17 17 18
41 41 42 43 43 43 43 42 42 41 41 41 40 40 40 40 39 39 39 38 37 37 36 36 35 34 34 33 32 32 32 32 32 33 34 34 35 35 34 33 32 30 28 26 25 23 22 21 21 22 23 23 22 20 18 16 14 13 12 11 12 12 13 14 16 17 17 18 19 19 19 19 18 18 18 18 18 18 18 18 18 18 18 18 18 18
41 41 41 42 42 42 42 41 41 40 40 40 40 39 39 39 38 38 38 37 37 36 36 35 34 34 33 33 32 32 32 32 32 33 33 34 34 34 33 32 30 28 26 25 23 22 21 21 22 23 23 22 20 18 16 15 13 12 11 12 12 13 14 15 16 17 18 18 19 19 19 18 18 18 18 18 18 18 18 18 18 18 18 18 18 18
40 41 41 41 41 41 41 40 40 39 39 39 40 39 39 38 38 37 37 37 36 36 35 35 34 33 33 32 32 32 32 32 32 32 33 33 33 33 32 30 28 26 25 23 22 21 21 22 23 23 22 20 18 17 15 13 12 12 12 12 13 14 15 16 17 18 18 18 18 18 19 18 18 18 18 18 18 18 18 18 18 18 18 18 18 19
40 41 41 41 41 41 41 40 39 39 39 39 39 39 39 38 38 37 37 36 35 35 35 34 34 33 33 32 32 32 32 32 32 32 32 33 33 32 30 29 26 25 23 22 21 21 22 23 24 23 21 19 17 15 14 13 12 12 12 13 14 15 16 17 18 18 18 18 18 18 18 18 18 18 18 18 18 18 18 18 19 19 19 19 19 19
40 40 41 41 41 40 40 40 40 39 38 38 38 38 38 38 38 37 37 36 35 34 34 34 34 33 33 32 32 31 31 31 31 31 32 32 32 31 29 27 25 23 22 21 21 22 23 24 23 22 19 17 15 14 13 12 12 12 13 14 15 16 17 17 18 18 18 18 18 18 18 18 18 18 19 19 19 19 19 19 19 19 19 20 20 20
40 40 41 41 41 40 40 40 40 40 39 38 38 38 38 37 37 37 37 36 35 34 33 33 33 33 33 32 32 31 31 31 31 31 31 31 31 29 27 25 24 22 22 21 22 23 24 24 22 20 17 16 14 13 12 12 12 13 14 15 16 17 17 18 18 18 18 18 18 18 18 18 19 19 19 19 19 19 19 20 20 20 20 20 21 21
41 41 41 41 41 40 40 39 40 39 39 39 38 38 38 37 36 36 36 36 35 34 33 33 33 32 32 32 32 31 31 31 31 31 31 31 30 28 26 24 23 22 22 22 24 24 24 22 20 18 16 15 14 13 12 13 13 14 15 16 17 17 17 18 18 18 18 18 18 18 18 19 19 19 19 19 20 20 20 20 21 21 21 21 21 22
41 41 41 41 41 40 40 40 40 39 39 38 38 38 38 37 36 36 35 35 35 34 34 33 33 32 32 32 32 32 31 31 31 31 31 30 29 28 26 24 23 22 23 24 24 24 23 20 18 16 15 14 13 13 13 13 14 15 16 17 17 17 17 18 18 18 18 18 18 18 19 19 19 19 20 20 20 20 21 21 21 21 22 22 22 22
41 41 41 41 40 40 40 40 40 39 39 38 38 38 38 37 37 36 35 35 34 34 34 33 33 32 32 31 31 31 31 31 31 31 30 30 29 27 25 24 23 23 24 24 25 23 21 19 17 15 14 13 13 13 14 14 15 16 17 17 17 17 17 17 18 18 18 18 18 19 19 19 19 20 20 20 20 21 21 21 22 22 22 22 22 23
41 41 41 40 40 40 39 39 39 39 39 38 38 38 37 37 36 36 35 35 34 34 33 33 33 32 32 32 31 31 31 31 31 30 30 29 28 27 25 24 24 24 25 25 24 22 20 18 16 15 14 13 13 14 15 15 16 17 17 17 17 17 17 17 18 18 18 18 18 19 19 19 20 20 20 20 20 21 21 21 22 22 22 23 23 23
41 40 40 40 40 39 39 39 39 39 38 38 37 37 37 37 36 35 35 35 34 34 33 33 33 32 32 31 31 31 31 31 31 30 30 29 28 27 26 25 25 26 26 25 23 21 19 17 15 14 14 14 14 15 16 16 17 17 17 17 17 17 17 17 18 18 18 18 19 19 19 19 19 20 20 20 20 21 21 21 22 22 22 22 23 23
40 40 40 39 39 39 39 38 38 38 38 37 37 37 36 36 36 35 35 34 34 34 33 33 33 32 32 31 31 31 31 31 31 30 29 29 28 26 26 27 27 27 26 24 22 19 18 16 15 14 14 14 15 16 16 17 17 17 17 17 17 17 17 17 18 18 18 18 18 19 19 19 19 19 20 20 20 20 21 21 21 22 22 22 22 22
40 39 39 39 39 39 38 38 38 37 37 37 36 36 36 35 35 35 35 34 34 34 33 33 32 32 32 31 31 30 30 31 31 30 29 29 28 27 27 28 28 27 25 23 20 18 17 16 15 15 15 15 16 16 17 17 17 17 17 17 17 17 17 17 18 18 18 18 18 18 18 18 19 19 19 19 19 20 20 20 21 21 21 22 22 22
39 39 39 38 38 38 38 37 37 36 36 36 36 35 35 35 35 35 34 34 34 34 33 33 32 32 32 32 31 31 30 30 31 30 30 29 28 28 28 28 28 26 24 21 20 18 17 16 15 15 16 16 16 17 17 17 17 17 17 17 17 17 17 17 17 17 18 18 18 18 18 18 18 18 18 19 19 19 20 20 20 20 21 21 21 22
39 38 38 38 38 37 37 36 36 36 35 35 35 35 35 35 35 34 34 34 34 33 33 32 32 31 31 31 31 31 30 31 31 30 30 29 28 28 28 29 27 25 23 21 19 18 17 16 16 16 16 17 17 17 17 17 17 17 17 17 17 17 17 17 17 17 17 17 17 17 17 17 17 18 18 18 19 19 19 20 20 20 20 21 21 21
38 38 38 37 37 36 36 36 35 35 35 35 35 35 35 35 35 34 34 34 33 33 32 32 31 31 31 31 31 31 30 31 31 31 30 29 28 28 29 28 26 24 22 21 19 18 17 16 16 16 17 17 17 17 17 17 17 17 17 17 17 17 17 17 16 16 16 16 16 17 17 17 17 17 18 18 18 19 19 20 20 20 20 21 21 21
38 38 37 36 36 35 36 36 35 35 35 35 35 35 35 35 35 34 34 33 33 32 32 31 31 31 31 31 31 31 31 31 31 31 30 29 28 28 29 28 26 24 22 20 19 18 17 17 17 17 17 17 17 17 17 17 17 17 17 16 16 16 16 16 16 16 16 16 16 16 16 17 17 17 18 18 19 19 19 20 20 20 21 21 21 21
37 37 36 36 35 35 35 35 35 35 35 35 35 35 35 35 34 34 34 33 32 32 31 31 31 31 31 31 31 31 31 31 31 30 29 28 28 28 28 27 25 24 22 20 19 18 17 17 17 17 17 17 17 17 17 17 16 16 16 16 16 16 16 16 16 16 16 16 16 16 16 17 17 17 18 18 19 19 20 20 20 21 21 21 22 22
36 36 35 35 35 35 35 35 35 35 35 35 36 36 35 35 34 34 33 32 32 31 31 31 31 30 30 31 31 31 31 31 30 29 28 27 27 28 28 26 25 23 21 20 18 18 17 17 17 17 17 17 17 17 16 16 16 16 16 16 16 16 15 15 15 15 16 16 16 16 17 17 17 18 18 19 19 20 20 21 21 21 22 22 22 22
35 35 35 35 35 35 35 35 35 36 36 36 36 36 35 35 34 33 33 32 31 31 31 31 30 30 30 30 30 30 30 29 28 27 27 27 28 28 27 26 24 23 21 19 18 18 17 17 17 17 17 17 16 16 16 16 16 16 16 16 15 15 15 15 15 16 16 16 16 17 17 17 18 18 19 19 20 20 21 21 22 22 22 23 23 23
34 34 34 34 34 34 35 35 35 36 36 36 36 36 35 34 34 33 32 31 31 31 31 30 30 30 30 30 30 29 28 27 26 26 27 28 28 28 27 25 23 22 20 19 18 18 17 17 17 17 17 17 16 16 16 16 16 16 15 15 15 15 15 16 16 16 16 16 17 17 17 18 18 19 19 20 21 21 22 22 22 23 23 23 24 24
34 34 34 34 34 35 35 35 35 36 36 36 36 35 35 34 33 32 31 31 30 30 30 30 30 30 30 30 29 27 26 26 26 27 28 29 28 27 26 24 23 21 20 19 18 18 18 18 17 17 17 16 16 16 16 16 16 16 15 15 15 15 16 16 16 16 17 17 18 18 18 19 19 20 20 21 21 22 22 23 23 24 24 24 25 25
34 34 34 34 35 35 35 35 36 36 36 36 35 35 34 33 32 31 31 30 30 30 30 30 30 30 30 29 28 27 26 26 27 28 29 29 28 26 25 23 22 21 20 19 18 18 18 18 17 17 17 16 16 16 16 16 16 16 16 16 16 16 16 16 17 17 18 18 18 19 19 20 20 21 21 22 23 23 24 24 24 25 25 25 26 26
34 34 35 35 35 35 35 36 36 36 36 35 35 34 33 32 31 30 30 30 30 30 30 30 30 30 29 28 27 26 27 27 28 29 30 29 27 25 24 23 21 20 19 19 19 18 18 18 18 17 17 16 16 16 16 16 16 16 16 16 16 16 17 17 18 18 19 19 20 20 20 21 22 22 23 23 24 24 25 25 26 26 26 27 27 27
35 35 35 35 35 35 35 36 36 36 35 35 34 33 31 31 30 30 30 29 29 30 30 30 30 29 28 27 26 27 27 28 29 29 29 27 25 24 23 22 21 20 19 19 19 18 18 18 18 17 17 16 16 16 16 16 16 16 16 16 17 17 18 18 19 19 20 20 21 21 22 22 23 23 24 24 25 25 26 26 27 27 28 28 28 29
35 35 35 35 35 35 35 36 36 35 35 34 33 31 30 30 29 29 29 29 29 29 29 29 28 28 27 26 26 27 28 28 28 28 27 25 24 23 22 21 20 20 19 19 19 19 18 18 18 17 17 17 17 16 16 17 17 17 17 17 18 18 18 19 19 20 21 21 22 22 23 24 24 25 25 26 26 27 27 28 28 28 29 29 30 30
35 35 35 35 35 35 35 35 35 34 34 32 31 30 29 29 28 28 28 28 28 28 28 28 27 26 26 26 27 27 27 27 26 25 24 23 23 22 21 21 20 20 19 19 19 19 18 18 18 17 17 17 17 17 17 17 17 17 18 18 18 19 19 20 21 21 22 22 23 24 24 25 25 26 26 27 27 28 28 29 29 30 30 30 31 31
35 35 35 35 35 35 35 35 34 33 32 31 30 29 28 28 28 28 28 28 28 28 27 27 26 26 26 26 26 26 25 25 24 24 23 23 22 22 21 20 20 20 19 19 19 19 19 18 18 18 18 18 17 18 18 18 18 18 18 19 19 20 20 21 22 22 23 23 24 25 25 26 26 27 28 28 29 29 30 30 31 31 31 32 32 33
35 35 35 34 34 34 34 34 33 32 31 30 29 28 28 27 27 27 28 28 27 27 26 26 25 25 25 25 25 25 24 23 23 23 23 22 22 21 21 20 20 19 19 19 19 19 19 19 18 18 18 18 18 18 18 19 19 19 19 20 20 21 21 22 23 23 24 24 25 26 26 27 28 28 29 29 30 30 31 31 32 32 33 33 34 34
34 34 34 34 34 33 33 32 31 30 29 28 28 27 27 27 27 27 27 27 27 27 26 25 25 25 25 25 24 24 23 23 23 23 23 22 21 21 20 20 20 19 19 19 19 19 19 19 19 19 19 19 19 19 19 20 20 20 20 21 21 22 22 23 24 24 25 26 26 27 28 28 29 29 30 31 31 32 32 33 33 34 34 34 35 35
34 33 33 33 33 32 32 31 30 29 28 27 27 27 27 27 27 27 27 27 27 26 25 25 24 24 24 23 23 23 23 23 23 23 22 22 21 21 20 20 20 20 20 19 19 19 19 19 19 19 19 19 20 20 20 20 21 21 21 22 22 23 23 24 25 26 26 27 27 28 29 29 30 31 31 32 33 33 34 34 35 35 35 36 36 37
33 33 32 32 32 31 30 29 28 27 27 27 26 26 26 27 27 27 27 27 27 26 25 24 24 23 23 23 22 22 23 23 23 23 22 22 21 21 20 20 20 20 20 20 20 20 20 20 20 20 20 20 20 21 21 21 22 22 23 23 23 24 25 25 26 27 27 28 29 29 30 30 31 32 33 33 34 35 35 36 36 36 37 37 37 37
32 31 31 31 30 30 29 28 27 27 26 26 26 26 26 27 27 27 27 27 26 26 25 24 23 23 23 22 23 23 23 23 23 23 22 22 21 21 20 20 20 20 20 20 20 20 20 20 20 20 21 21 21 22 22 22 23 23 23 24 25 25 26 26 27 28 28 29 30 30 31 32 32 33 34 35 35 36 36 37 37 37 38 38 38 38
31 30 30 29 29 28 27 27 26 26 26 26 26 26 27 27 27 27 27 27 26 25 25 24 24 23 23 23 23 24 24 23 23 23 22 22 21 21 20 20 20 20 20 20 20 20 20 20 21 21 21 22 22 23 23 23 24 24 24 25 26 26 27 27 28 29 29 30 31 32 32 33 34 34 35 36 36 37 37 37 37 38 38 38 38 38
29 29 28 28 27 27 26 26 26 26 26 26 26 27 27 27 28 27 27 26 26 25 25 24 24 24 24 24 24 24 24 23 23 23 22 22 21 21 20 20 20 20 20 20 20 20 21 21 21 22 22 23 23 24 24 24 25 25 25 26 26 27 28 28 29 30 31 31 32 33 33 34 35 35 36 36 36 37 37 37 37 37 37 37 38 38
28 28 27 27 26 26 26 26 26 26 26 26 27 27 28 28 28 27 27 26 26 25 25 25 25 24 25 25 25 24 24 23 23 23 22 22 21 21 21 20 20 20 20 20 20 21 21 22 22 23 24 24 24 25 25 25 26 26 26 27 27 28 28 29 30 31 31 32 33 34 34 35 35 36 36 36 36 36 36 36 36 36 36 36 36 36
28 27 27 26 26 26 26 26 26 26 27 27 27 28 28 28 28 27 27 26 26 26 25 25 25 25 25 25 25 24 24 23 23 23 22 22 21 21 21 20 20 20 20 20 21 21 22 23 23 24 24 25 25 26 26 26 26 27 27 28 28 29 29 30 31 31 32 33 34 34 35 35 35 35 35 35 35 35 35 35 35 35 35 35 35 35
27 27 26 26 26 26 26 26 26 27 27 27 28 28 28 28 27 27 26 26 26 25 25 25 25 25 25 25 25 24 24 23 23 23 22 22 21 21 21 20 20 20 21 21 22 22 23 24 24 25 25 26 26 27 27 27 27 27 28 28 29 29 30 31 31 32 33 33 34 34 35 35 35 35 34 34 34 34 34 33 33 33 33 33 33 33
27 27 26 26 27 27 27 27 27 27 27 27 27 28 28 28 28 27 27 26 25 25 24 24 24 25 25 25 24 24 24 23 23 23 22 22 21 21 21 20 20 21 21 22 23 23 24 25 25 26 26 27 27 27 28 27 28 28 28 29 29 30 31 31 32 32 33 33 34 34 34 34 34 34 33 33 33 32 32 32 32 32 32 32 32 32
27 27 27 27 27 27 27 27 27 27 27 27 27 27 28 28 28 28 27 26 24 24 23 24 24 25 25 25 24 24 24 23 23 23 22 22 21 21 21 21 21 21 22 23 23 24 25 26 26 27 27 28 28 28 28 28 28 28 28 29 30 31 31 32 32 32 33 33 33 33 33 33 33 32 32 32 31 31 31 31 31 31 31 31 31 31
27 27 27 27 28 28 28 27 27 27 27 27 27 27 28 28 28 27 26 24 23 23 23 24 25 25 25 25 25 24 24 23 23 23 22 22 22 21 21 21 22 22 23 24 24 25 26 26 27 27 28 28 28 28 28 27 28 28 29 30 30 31 32 32 32 32 32 32 32 32 32 31 31 31 31 30 30 30 30 30 30 30 30 30 31 31
27 27 27 28 28 28 28 27 27 27 27 27 27 27 27 26 26 25 23 23 22 23 24 25 25 25 25 25 25 24 24 23 23 23 22 22 22 22 22 22 22 23 24 25 25 26 27 27 27 28 28 28 28 28 27 27 28 28 29 30 30 31 31 31 31 31 31 31 31 30 30 30 30 30 29 29 29 29 29 29 30 30 30 31 31 32
27 27 28 28 28 28 28 27 27 26 26 26 25 25 25 24 23 22 22 22 22 23 24 25 26 26 25 25 25 24 24 23 23 23 22 22 22 22 22 23 23 24 25 25 26 27 27 28 28 28 28 28 28 27 27 28 28 29 29 30 30 30 30 30 30 30 30 29 29 29 29 29 29 29 29 29 29 29 29 30 30 31 32 32 33 33
28 28 28 28 28 28 28 27 27 26 25 25 24 23 22 22 21 21 21 22 23 24 25 26 26 26 26 25 25 24 24 24 23 23 23 23 23 23 23 24 24 25 26 26 27 27 28 28 28 28 28 28 27 27 27 28 28 29 29 29 29 29 29 29 28 28 28 28 28 28 28 28 28 28 28 29 29 29 30 31 32 32 33 34 35 35
28 28 28 28 28 28 28 27 26 26 25 23 22 22 21 20 20 20 21 22 23 25 26 26 26 26 26 25 25 24 24 24 23 23 23 23 23 23 24 24 25 26 26 27 27 28 28 28 28 28 27 27 27 27 27 28 28 29 29 29 28 28 28 27 27 27 27 27 27 27 27 27 28 28 29 29 30 31 31 32 33 34 35 36 36 37
28 28 28 28 28 28 28 27 26 25 24 23 22 21 20 20 20 20 21 23 24 25 26 26 26 26 26 25 25 25 24 24 24 23 23 24 24 24 25 25 26 26 26 27 27 28 28 28 28 27 27 27 27 27 28 28 28 28 28 28 27 27 26 26 26 26 26 26 26 27 27 27 28 29 29 30 31 32 33 34 35 35 36 37 38 38
28 28 28 28 28 28 27 27 26 25 23 22 21 20 20 20 20 21 22 24 25 26 27 27 27 26 26 25 25 25 24 24 24 24 24 24 24 25 25 26 26 26 27 27 27 28 28 27 27 27 26 27 27 28 28 28 28 27 27 27 26 26 26 25 25 25 25 25 26 26 27 28 29 30 30 31 32 33 34 35 36 36 37 38 38 39
Wind_Direction
289 289 289 290 290 291 292 292 292 293 293 293 294 294 294 293 293 293 292 291 291 290 289 288 287 287 286 287 287 288 289 289 291 292 294 295 297 298 299 298 296 292 288 285 283 282 281 281 281 281 281 282 282 281 277 272 266 259 253 250 249 252 256 259 263 266 269 273 276 279 281 283 284 285 285 285 285 285 285 285 285 284 284 283 283 282
289 289 289 290 290 291 292 292 292 292 293 293 294 294 294 293 293 293 292 292 290 289 288 287 286 286 286 286 287 287 288 289 291 292 294 296 297 298 299 298 295 291 287 284 283 282 281 280 280 281 283 283 283 280 274 267 260 253 249 247 249 253 257 261 265 269 272 275 278 281 283 284 284 284 284 284 284 284 284 284 284 284 284 283 283 282
289 289 289 290 290 291 292 292 293 293 293 293 294 294 294 293 293 292 292 291 290 289 288 287 286 285 285 285 286 286 287 289 290 292 294 296 298 299 299 297 294 290 286 283 281 281 280 280 281 283 284 284 281 276 268 260 252 247 245 247 250 255 260 264 268 271 274 278 280 282 283 283 283 282 282 282 283 283 284 284 284 284 284 283 283 282
288 289 290 290 291 291 292 292 293 293 293 293 294 294 294 293 293 292 291 291 290 289 287 286 285 284 284 284 284 285 286 288 289 292 294 296 298 299 299 297 293 288 284 281 279 278 278 279 281 283 283 281 276 268 260 252 246 244 244 248 253 258 263 267 270 273 276 279 281 282 282 282 282 282 282 282 282 282 283 283 284 284 284 283 283 282
289 289 290 291 291 292 292 292 292 293 293 293 293 293 293 293 292 292 291 290 289 288 286 285 284 283 283 283 283 284 285 286 289 291 294 297 299 299 298 296 292 287 282 279 277 276 277 279 281 282 280 276 268 260 251 244 241 241 245 250 255 261 265 269 272 275 277 279 280 281 281 281 281 281 281 282 282 282 283 283 284 284 284 283 283 282
289 289 290 291 291 291 291 292 292 292 293 293 293 293 292 292 292 291 290 290 288 287 286 284 283 282 281 281 282 283 284 286 288 291 294 297 299 299 298 294 290 285 280 277 275 274 275 278 280 279 275 268 260 251 244 239 239 242 247 253 258 263 267 271 274 276 278 279 280 280 281 281 281 282 282 282 283 283 283 283 284 284 284 283 283 282
290 290 290 290 290 290 290 290 291 291 292 292 292 292 292 291 290 290 289 288 287 286 285 283 282 280 280 280 281 281 283 285 287 291 294 297 298 298 296 292 287 282 278 274 273 273 275 278 278 274 268 259 251 243 239 238 240 245 251 257 262 266 270 273 275 277 278 279 279 280 280 281 282 282 283 283 283 284 284 284 284 284 284 283 283 282
289 290 289 289 289 289 289 289 289 290 290 291 291 291 291 291 290 289 288 287 286 285 284 283 281 279 278 278 279 281 282 284 287 290 293 296 297 297 294 290 284 279 275 272 272 274 276 277 274 268 260 251 243 238 237 239 243 250 256 261 266 269 272 275 276 277 278 279 279 280 281 281 282 283 284 284 284 284 284 285 285 284 284 284 283 283
288 288 289 288 288 288 289 289 289 289 289 290 290 290 290 290 289 289 288 286 285 284 283 281 280 279 278 278 279 280 281 283 286 289 293 295 296 295 292 287 282 277 273 272 273 275 276 274 268 260 251 243 238 236 238 243 249 255 261 265 269 272 274 275 277 277 278 278 279 280 281 282 283 284 284 285 285 285 285 285 285 285 285 284 284 283
288 287 287 287 287 287 287 288 288 289 289 289 289 289 289 288 288 288 287 286 285 283 281 280 279 278 278 278 279 279 280 282 285 288 291 294 294 293 289 284 279 275 273 274 275 276 274 268 261 252 243 237 236 237 242 248 254 260 265 268 271 273 275 276 277 277 278 279 279 280 282 283 283 284 285 285 286 286 286 286 286 285 285 284 284 283
287 287 286 286 286 287 287 287 287 288 288 289 289 289 288 287 286 286 286 285 284 283 281 279 278 277 277 278 278 279 280 281 283 286 289 292 292 291 287 282 277 275 275 276 277 275 270 262 253 244 238 236 237 242 248 254 259 264 267 270 272 274 275 275 276 277 278 279 280 281 282 283 284 285 285 285 286 286 286 286 286 286 285 284 284 283
286 286 286 286 286 286 287 287 287 287 288 288 289 289 288 287 286 285 284 284 283 282 281 279 278 277 276 277 278 279 280 281 283 285 288 290 290 288 285 280 277 276 277 278 276 271 264 255 246 239 236 238 242 248 253 259 263 266 268 271 272 273 274 275 276 277 278 279 280 281 282 283 284 284 285 285 286 286 286 286 285 285 284 284 283 283
286 286 286 286 286 286 286 286 287 287 288 288 288 288 287 287 286 285 284 282 281 280 280 279 278 277 277 277 278 279 280 281 282 284 287 288 288 286 283 280 279 279 279 277 272 265 257 248 240 237 238 242 247 253 258 262 265 267 269 271 272 273 274 274 275 277 278 279 280 281 282 283 283 284 285 285 285 285 285 285 285 284 284 284 283 282
286 286 286 286 286 286 286 286 286 287 287 287 287 287 286 285 285 284 283 282 280 279 279 278 277 277 277 277 278 279 279 280 281 283 285 286 286 284 282 281 282 282 280 274 266 258 249 242 238 238 241 246 252 257 261 264 266 268 269 271 271 272 273 274 275 277 278 279 280 281 282 283 283 284 284 285 285 285 285 285 285 284 284 283 283 282
286 286 286 286 286 286 286 286 286 286 286 286 286 285 285 284 283 282 281 280 279 278 278 277 277 276 277 277 278 278 279 279 280 282 284 284 283 282 281 282 283 282 277 269 259 249 242 238 237 240 245 250 255 259 262 264 266 268 269 270 271 272 273 274 276 277 278 279 280 281 282 283 283 284 284 285 285 285 285 285 285 285 284 284 283 283
286 286 286 286 286 286 286 285 285 285 285 285 285 284 284 283 283 282 280 279 278 277 277 276 276 276 276 276 277 277 278 278 280 281 282 282 281 280 280 282 282 279 272 261 250 241 237 237 239 244 249 253 257 260 262 264 266 267 268 269 271 272 273 274 276 277 278 279 280 281 282 283 283 284 285 285 285 285 286 286 285 285 285 285 284 284
286 286 286 286 285 285 285 285 285 285 284 284 284 283 283 282 281 281 279 278 277 276 276 275 274 274 275 276 276 276 276 278 279 280 281 280 279 278 279 281 279 273 264 252 242 236 235 238 242 246 251 255 258 260 262 264 265 266 268 269 270 272 273 275 276 277 278 279 280 281 282 283 283 284 285 285 286 286 286 287 286 286 286 286 286 285
286 286 286 285 285 285 285 284 284 284 284 283 283 283 282 281 280 279 278 277 276 275 275 274 274 273 274 275 275 276 276 276 278 279 279 279 278 278 278 279 275 267 255 244 237 234 236 240 244 249 252 255 258 260 262 263 264 266 267 269 270 272 273 275 275 277 278 279 280 281 282 283 284 285 286 286 287 287 288 288 288 288 288 288 287 287
286 286 285 285 285 285 284 284 283 283 283 283 283 282 282 281 280 279 277 276 275 274 274 273 273 273 273 273 274 275 275 276 277 278 278 278 277 277 277 277 271 260 247 238 234 235 238 242 246 250 253 256 258 259 261 262 263 265 266 268 270 271 273 274 275 276 277 278 280 281 282 284 285 286 287 287 288 289 289 289 289 290 289 289 289 289
286 286 285 285 285 284 284 283 282 282 282 282 282 282 281 280 279 278 276 275 274 273 273 272 272 272 272 272 273 273 274 275 276 277 276 276 275 275 276 273 264 252 240 234 234 236 240 244 247 251 253 255 257 258 260 261 263 264 266 268 269 271 272 273 274 275 277 279 280 282 283 285 286 287 288 289 290 290 291 291 291 291 291 291 291 290
286 285 285 284 284 283 283 283 282 282 282 281 281 281 280 280 279 277 276 274 273 272 271 270 270 270 271 271 272 273 273 275 276 275 274 273 273 273 272 267 257 245 236 233 235 238 242 245 248 251 253 255 256 257 259 261 262 264 266 267 268 270 271 273 274 276 278 279 281 283 284 286 287 288 289 290 291 291 291 292 292 292 292 291 291 291
285 285 285 284 284 283 283 282 282 282 281 281 281 280 280 279 278 276 275 273 271 270 269 268 268 269 269 270 271 272 274 275 275 274 272 271 271 270 268 261 251 240 234 234 236 240 243 246 249 251 252 254 255 257 258 261 262 264 265 267 268 270 271 273 275 277 279 280 282 284 285 287 288 290 290 291 292 292 292 293 293 292 292 292 292 291
285 284 284 284 283 283 283 282 282 282 281 281 280 280 279 278 277 275 274 272 270 268 268 267 267 267 268 269 271 273 274 274 273 271 270 270 270 268 264 256 246 237 234 235 238 242 244 247 249 251 252 253 255 257 259 261 263 264 266 267 269 271 272 274 276 278 280 282 283 285 287 288 289 290 291 292 293 293 293 293 293 293 293 292 292 291
284 284 284 283 283 283 283 283 282 282 281 281 280 279 278 277 275 274 272 270 268 267 266 266 266 267 268 269 271 273 273 272 271 269 268 269 268 264 259 250 241 235 235 237 240 243 245 247 249 250 252 253 255 257 259 261 263 265 266 268 270 272 274 276 277 279 281 282 284 286 287 289 290 291 292 292 293 293 293 293 293 293 293 292 292 291
284 284 283 283 283 283 283 283 283 282 282 281 280 279 277 276 274 272 270 268 266 265 265 265 265 266 268 269 270 270 270 269 269 268 268 268 265 260 253 245 238 235 236 239 241 243 246 247 249 250 252 254 256 258 260 262 263 265 267 269 271 273 275 277 278 280 282 284 285 287 288 289 290 291 292 292 293 293 293 293 293 293 293 292 292 291
284 283 283 283 283 283 283 283 283 283 282 281 280 278 276 274 272 270 268 265 264 264 263 264 265 266 267 267 267 267 267 267 267 268 267 266 261 255 247 240 236 235 238 240 242 244 246 247 249 250 252 254 256 258 260 262 264 266 267 269 272 274 276 278 279 281 283 284 286 287 289 289 290 291 292 292 293 293 293 293 293 293 293 292 292 291
284 283 283 283 283 283 283 284 283 283 282 281 279 277 275 273 270 268 265 264 263 262 263 263 265 265 266 265 265 265 265 266 268 268 267 263 256 247 240 236 235 236 238 240 242 244 246 247 249 251 252 254 256 258 260 262 264 266 268 270 272 275 277 279 280 282 284 285 287 288 289 290 291 291 292 292 292 293 293 293 293 293 293 292 292 291
284 283 283 283 283 283 284 284 284 283 282 281 278 276 273 271 268 265 263 262 262 262 262 263 265 265 264 263 263 264 266 268 268 268 265 259 249 240 234 233 234 236 239 240 242 244 246 247 249 251 252 254 256 258 260 262 264 266 269 271 273 275 278 280 281 283 285 286 287 288 289 290 291 291 292 292 292 293 293 293 293 293 292 292 292 291
284 283 283 283 283 284 284 284 284 283 282 280 277 275 271 268 265 263 262 261 261 262 263 264 264 263 263 262 264 266 268 269 268 266 261 251 241 234 232 232 234 237 239 241 242 244 246 247 249 251 252 254 256 258 260 263 265 267 270 272 274 277 279 281 282 284 285 286 287 288 289 290 290 291 291 292 292 292 292 293 293 292 292 292 291 291
284 283 283 283 283 284 284 284 284 283 281 279 276 272 269 266 263 262 261 261 261 262 263 263 263 262 262 264 267 270 270 269 266 261 253 243 234 231 231 233 235 237 239 241 243 245 246 247 249 251 252 254 256 258 261 263 266 268 271 273 275 278 280 281 283 284 285 286 287 288 289 289 290 290 291 291 292 292 292 292 292 292 292 291 291 290
284 284 283 283 284 284 284 284 283 282 280 277 273 270 267 264 261 260 260 260 261 262 262 262 262 262 263 267 270 272 270 266 261 254 244 235 231 230 231 234 236 237 239 241 243 245 246 248 249 251 253 255 257 259 262 264 267 269 272 274 276 278 280 282 283 284 285 286 287 288 288 289 289 290 290 291 291 291 292 292 292 291 291 291 290 289
284 284 283 284 284 284 284 284 282 280 278 274 271 267 264 262 260 259 259 259 260 261 261 261 261 263 265 269 270 269 265 259 252 244 236 231 230 231 233 235 236 238 239 241 243 245 247 248 250 251 254 256 258 260 263 265 268 270 273 275 277 279 281 282 283 284 285 286 287 287 288 288 289 289 290 290 291 291 291 291 291 291 291 290 290 289
284 284 283 283 284 284 283 283 281 278 275 271 268 265 262 260 259 258 258 258 259 259 260 261 263 265 267 268 267 264 258 250 242 236 232 230 230 232 234 235 237 238 240 242 244 246 247 249 251 253 255 257 259 261 264 266 269 271 273 275 278 279 281 283 283 284 285 286 287 287 288 288 289 290 290 291 291 291 291 291 291 291 291 290 290 289
284 283 283 283 283 283 283 281 279 276 272 268 265 262 260 259 258 257 257 257 258 258 260 262 265 267 268 267 263 257 249 241 235 231 230 231 232 234 235 236 237 239 241 243 245 246 248 250 252 254 256 258 260 263 265 267 270 272 274 276 278 280 282 283 284 285 285 286 287 287 288 289 289 290 291 291 292 292 292 292 292 291 291 290 290 289
283 282 282 282 282 282 281 279 276 272 269 265 262 260 258 257 256 256 256 256 257 258 260 264 267 268 266 262 256 248 240 234 231 230 231 232 234 235 236 237 238 240 242 244 246 248 250 251 253 255 257 260 262 264 266 268 271 273 275 277 279 281 282 283 284 285 286 287 287 288 289 290 290 291 292 292 292 292 292 292 292 292 291 291 290 289
282 281 281 281 281 280 279 276 273 269 266 263 260 258 257 256 255 255 255 255 256 258 262 266 268 268 265 258 249 241 234 231 230 231 232 234 235 236 236 237 239 241 243 245 247 249 251 253 255 256 259 261 263 265 267 269 271 274 276 278 279 281 282 284 285 285 286 287 288 289 290 290 291 292 293 293 293 293 293 293 293 292 292 291 290 290
281 280 280 280 279 278 276 273 270 266 263 261 259 257 256 255 254 254 254 255 257 260 264 267 269 267 262 253 244 236 232 230 231 233 234 235 236 236 237 238 240 242 244 247 249 251 253 255 257 259 261 262 265 266 268 270 272 274 276 278 280 281 283 284 285 286 287 288 289 290 291 292 292 293 294 294 294 294 294 294 294 293 293 292 291 290
279 278 278 278 277 276 273 270 267 264 261 259 257 256 255 254 254 253 254 255 258 262 266 268 268 264 256 247 239 233 231 231 233 234 236 236 237 237 238 239 241 243 246 248 251 253 255 257 259 261 262 264 265 267 269 271 273 275 277 278 280 282 284 285 286 287 288 289 290 291 292 293 294 294 294 295 295 295 295 295 294 294 294 293 292 291
276 276 275 275 274 273 270 267 265 262 260 258 257 256 255 254 253 253 254 257 260 264 267 268 265 259 251 242 236 232 232 233 234 236 237 237 237 238 240 241 243 245 248 250 253 255 258 260 261 262 264 265 266 268 270 272 274 276 278 279 281 283 284 286 287 288 289 291 292 293 293 294 295 295 295 296 296 296 295 295 295 295 294 294 293 292
274 273 272 272 271 270 268 265 263 261 260 258 257 256 255 254 253 254 255 258 262 265 267 266 261 254 246 239 234 233 233 235 236 237 237 238 239 240 241 243 245 248 250 253 256 258 260 261 262 263 265 266 268 269 271 273 275 277 279 281 282 284 286 287 288 290 291 292 293 294 294 295 295 296 296 296 296 296 296 296 296 295 295 294 294 293
270 269 269 269 268 267 265 264 262 261 259 258 257 256 255 254 254 255 257 261 264 267 267 263 257 248 241 236 234 234 235 237 237 238 238 239 240 241 243 245 248 250 253 255 258 259 261 262 263 265 266 268 269 271 273 275 277 279 280 282 284 285 287 288 289 291 292 293 294 295 295 296 296 297 297 297 297 297 297 297 296 296 296 295 295 294
267 266 266 266 265 264 263 262 261 260 260 258 257 256 255 255 255 257 260 263 265 266 264 258 250 243 237 234 234 236 237 238 238 239 239 240 242 243 245 248 250 253 255 257 259 261 262 263 265 266 268 269 271 273 275 277 278 280 282 284 285 287 288 289 291 292 293 294 295 296 296 297 297 297 297 297 298 298 298 297 297 297 296 296 296 295
265 264 264 263 263 263 262 261 261 260 259 258 257 256 256 256 258 260 263 265 265 263 258 252 245 239 236 236 236 238 238 239 239 240 241 242 243 245 248 250 252 254 257 259 260 262 263 264 266 268 269 271 273 274 276 278 280 282 284 286 287 288 289 291 292 293 294 295 296 297 297 298 298 298 298 298 298 298 298 298 298 297 297 297 297 297
263 262 261 261 261 261 261 261 260 259 259 258 257 257 257 258 260 263 264 264 262 258 252 246 241 238 236 237 238 239 239 240 240 241 242 243 245 247 249 252 254 256 258 260 261 263 264 266 268 269 271 273 274 276 278 280 282 284 285 287 288 290 291 292 294 295 296 297 297 298 298 298 298 299 299 299 299 299 299 299 299 299 298 298 298 298
261 260 260 260 260 260 260 259 259 258 258 257 257 258 259 260 262 263 263 261 257 252 246 241 238 237 237 238 239 239 240 240 241 242 243 245 247 248 251 253 255 257 259 261 262 264 265 267 269 271 272 274 276 277 279 281 283 285 287 288 290 291 292 294 295 296 297 298 298 298 298 298 299 299 299 300 300 300 299 300 300 300 300 300 299 299
260 259 259 259 259 259 258 258 257 257 257 257 257 258 259 261 262 262 260 257 251 246 241 238 237 237 238 239 240 240 241 241 242 243 244 246 248 249 252 254 256 258 260 261 263 265 266 268 270 272 273 275 277 279 281 283 285 286 288 289 291 292 294 295 296 298 298 298 299 299 299 299 299 299 300 300 300 300 300 301 301 301 301 301 300 300
259 259 258 258 258 257 257 256 255 255 255 256 257 258 258 259 259 258 256 251 246 242 239 237 237 238 239 240 241 241 241 242 243 244 245 247 248 250 253 255 257 258 260 262 264 266 268 269 271 273 274 276 278 280 282 284 286 287 289 290 292 293 295 296 297 298 298 299 299 299 299 299 300 300 300 301 301 301 302 302 302 302 302 301 301 300
259 258 257 257 256 255 254 254 253 253 254 254 255 255 256 256 255 253 250 247 242 239 238 237 238 240 241 241 242 242 242 243 244 245 246 248 249 251 253 255 257 259 261 263 265 267 269 271 272 274 275 277 280 282 283 285 287 288 290 291 293 295 296 297 297 298 298 298 298 299 299 299 300 301 301 301 302 302 303 303 303 302 302 302 301 300
258 257 256 255 254 253 252 252 252 252 252 252 252 253 253 253 251 249 246 243 240 238 238 238 240 241 242 242 243 243 244 244 245 246 248 249 251 253 254 256 258 260 263 265 267 269 270 271 273 275 277 279 281 283 284 286 287 289 291 293 294 295 296 297 297 297 297 298 298 299 299 300 301 301 302 303 303 303 303 304 303 303 303 302 301 300
257 255 254 253 252 251 251 250 250 250 251 251 251 251 250 250 249 247 244 241 239 239 239 240 241 242 243 243 243 244 245 245 247 248 249 251 252 254 256 258 260 262 264 267 268 270 271 272 274 275 278 280 282 284 285 287 288 290 292 293 294 295 296 296 296 296 296 297 298 299 300 301 301 302 303 304 304 304 304 304 304 304 303 302 301 301
255 254 252 251 250 250 249 249 249 249 250 250 250 250 249 248 247 245 243 241 240 240 241 242 243 243 244 244 244 245 246 247 248 249 251 253 254 256 258 260 262 264 266 268 269 270 272 273 275 277 279 281 284 285 287 288 290 291 292 293 294 295 295 295 295 296 296 297 298 299 300 301 302 303 304 305 305 305 305 305 305 304 304 304 303 302
Height
5725 5724 5723 5722 5721 5719 5718 5717 5716 5715 5713 5712 5711 5710 5709 5708 5707 5706 5705 5704 5703 5702 5701 5700 5700 5699 5698 5698 5698 5697 5696 5695 5694 5693 5692 5691 5690 5689 5688 5688 5687 5686 5685 5684 5684 5683 5683 5683 5682 5681 5681 5680 5680 5680 5680 5680 5680 5680 5680 5680 5680 5681 5681 5681 5682 5682 5682 5683 5683 5683 5683 5683 5683 5683 5683 5682 5682 5682 5682 5682 5682 5682 5682 5682 5682 5681
5722 5721 5719 5718 5718 5716 5715 5713 5712 5712 5711 5709 5708 5707 5706 5705 5703 5703 5702 5701 5700 5699 5698 5698 5697 5697 5696 5695 5695 5694 5693 5693 5692 5690 5689 5688 5687 5687 5686 5685 5684 5683 5683 5682 5682 5681 5681 5680 5680 5679 5679 5678 5678 5678 5678 5678 5678 5678 5678 5679 5679 5679 5680 5680 5680 5681 5681 5681 5681 5681 5681 5682 5681 5681 5681 5681 5681 5680 5680 5680 5680 5680 5680 5680 5680 5680
5719 5718 5716 5715 5714 5713 5712 5710 5709 5708 5707 5706 5705 5704 5703 5702 5701 5699 5699 5698 5697 5696 5696 5695 5694 5694 5693 5693 5693 5692 5691 5690 5689 5688 5687 5686 5685 5684 5683 5683 5682 5681 5680 5680 5679 5679 5678 5678 5678 5677 5677 5677 5677 5677 5677 5677 5677 5677 5677 5677 5678 5678 5678 5679 5679 5679 5679 5680 5680 5680 5680 5680 5680 5680 5680 5679 5679 5679 5679 5679 5678 5678 5678 5678 5678 5678
5716 5715 5713 5712 5711 5709 5708 5707 5706 5705 5704 5703 5702 5701 5700 5698 5698 5696 5696 5695 5694 5693 5693 5692 5692 5691 5691 5690 5690 5689 5689 5688 5687 5685 5685 5684 5683 5682 5681 5680 5679 5678 5678 5678 5677 5677 5677 5676 5676 5675 5675 5675 5675 5675 5675 5675 5675 5675 5676 5676 5677 5677 5677 5678 5678 5678 5678 5678 5678 5678 5678 5678 5678 5678 5678 5678 5678 5678 5677 5677 5677 5677 5677 5677 5677 5677
5713 5712 5710 5709 5708 5706 5705 5704 5703 5702 5701 5700 5699 5698 5697 5696 5694 5693 5693 5692 5691 5691 5690 5689 5689 5688 5688 5688 5688 5687 5686 5685 5684 5683 5682 5682 5681 5680 5679 5678 5677 5676 5676 5675 5675 5675 5674 5674 5674 5674 5673 5673 5673 5673 5673 5673 5674 5674 5674 5675 5675 5676 5676 5676 5677 5677 5677 5677 5677 5677 5677 5677 5677 5677 5676 5676 5676 5676 5676 5676 5675 5675 5675 5675 5675 5675
5709 5708 5707 5706 5704 5703 5702 5701 5700 5699 5698 5696 5695 5694 5694 5693 5692 5691 5690 5689 5688 5688 5687 5687 5687 5686 5686 5685 5685 5685 5684 5683 5682 5681 5680 5679 5678 5678 5677 5676 5675 5674 5674 5673 5673 5673 5673 5672 5672 5672 5672 5672 5672 5672 5672 5672 5673 5673 5673 5674 5674 5674 5675 5675 5675 5675 5675 5675 5675 5675 5675 5675 5675 5675 5675 5675 5674 5674 5674 5674 5674 5674 5674 5673 5673 5673
5706 5704 5703 5703 5701 5700 5699 5698 5697 5696 5695 5694 5692 5691 5691 5690 5689 5688 5687 5686 5686 5685 5685 5684 5684 5683 5683 5683 5683 5682 5682 5681 5680 5679 5678 5677 5676 5675 5674 5673 5673 5672 5672 5672 5671 5671 5671 5671 5671 5670 5670 5670 5670 5670 5670 5671 5671 5672 5672 5673 5673 5673 5673 5673 5673 5673 5673 5673 5673 5673 5673 5673 5673 5673 5673 5673 5673 5673 5673 5673 5672 5672 5672 5672 5672 5672
5703 5701 5700 5699 5698 5697 5696 5695 5694 5693 5693 5691 5690 5689 5688 5687 5686 5685 5684 5684 5683 5683 5682 5682 5681 5681 5681 5681 5680 5680 5679 5678 5678 5677 5676 5675 5674 5673 5673 5672 5671 5671 5670 5670 5670 5669 5669 5669 5669 5668 5668 5668 5668 5669 5669 5669 5670 5670 5671 5671 5671 5672 5672 5672 5672 5672 5672 5672 5672 5672 5672 5672 5671 5671 5671 5671 5671 5671 5671 5671 5671 5671 5670 5670 5670 5670
5700 5698 5697 5696 5696 5695 5693 5692 5691 5690 5689 5688 5688 5687 5685 5684 5683 5682 5681 5681 5680 5680 5680 5679 5678 5678 5678 5678 5678 5678 5677 5676 5676 5675 5674 5673 5672 5671 5671 5670 5669 5669 5668 5668 5668 5668 5668 5667 5667 5667 5667 5667 5667 5668 5668 5668 5668 5669 5669 5670 5670 5670 5670 5670 5670 5670 5670 5670 5670 5670 5670 5670 5670 5670 5669 5669 5669 5669 5669 5669 5669 5669 5669 5669 5668 5668
5697 5696 5695 5693 5692 5692 5691 5690 5688 5686 5686 5685 5684 5683 5683 5682 5681 5680 5679 5678 5678 5677 5677 5677 5676 5676 5675 5675 5675 5675 5674 5674 5673 5673 5672 5671 5670 5669 5669 5668 5668 5667 5667 5667 5666 5666 5666 5665 5665 5665 5665 5665 5666 5666 5667 5667 5667 5668 5668 5668 5668 5668 5669 5669 5669 5669 5669 5669 5668 5668 5668 5668 5668 5668 5668 5668 5668 5668 5667 5667 5667 5667 5667 5667 5667 5667
5693 5692 5692 5690 5689 5688 5688 5687 5685 5683 5683 5682 5681 5680 5679 5678 5678 5678 5676 5675 5675 5674 5674 5673 5673 5673 5673 5673 5672 5672 5672 5672 5671 5671 5670 5669 5668 5668 5667 5666 5666 5666 5665 5665 5665 5664 5664 5664 5663 5664 5664 5664 5664 5665 5665 5666 5666 5666 5667 5667 5667 5667 5667 5667 5667 5667 5667 5667 5667 5667 5667 5667 5666 5666 5666 5666 5666 5666 5666 5665 5665 5665 5665 5665 5665 5665
5690 5689 5688 5687 5686 5685 5684 5683 5682 5680 5680 5679 5678 5677 5676 5675 5675 5675 5674 5673 5673 5672 5672 5671 5670 5670 5671 5670 5670 5669 5669 5669 5669 5668 5668 5667 5666 5666 5665 5664 5664 5664 5663 5663 5663 5663 5662 5662 5662 5662 5663 5663 5663 5663 5664 5664 5664 5665 5665 5665 5665 5666 5666 5666 5666 5666 5666 5665 5665 5665 5665 5665 5665 5665 5664 5664 5664 5664 5664 5664 5664 5663 5663 5663 5663 5663
5686 5685 5685 5683 5683 5682 5681 5680 5678 5677 5676 5676 5675 5674 5673 5672 5672 5672 5671 5670 5670 5669 5669 5668 5668 5668 5668 5668 5667 5667 5667 5666 5666 5666 5665 5665 5664 5663 5663 5663 5662 5662 5662 5661 5661 5661 5661 5661 5661 5661 5661 5662 5662 5662 5663 5663 5663 5663 5663 5664 5664 5664 5664 5664 5664 5664 5664 5664 5664 5664 5663 5663 5663 5663 5663 5663 5663 5663 5662 5662 5662 5662 5662 5662 5662 5661
5683 5682 5681 5680 5679 5678 5677 5676 5675 5674 5673 5672 5672 5671 5670 5669 5668 5668 5668 5668 5667 5666 5666 5666 5665 5665 5665 5665 5665 5664 5664 5664 5664 5663 5663 5663 5662 5662 5661 5660 5660 5660 5660 5659 5659 5659 5659 5659 5659 5660 5660 5660 5661 5661 5661 5661 5662 5662 5662 5662 5662 5663 5663 5663 5663 5663 5663 5662 5662 5662 5662 5662 5662 5662 5661 5661 5661 5661 5661 5661 5660 5660 5660 5660 5660 5660
5679 5678 5677 5676 5675 5674 5673 5673 5672 5671 5670 5669 5668 5668 5667 5666 5666 5665 5665 5665 5664 5663 5663 5663 5663 5663 5663 5663 5662 5662 5662 5661 5661 5661 5661 5660 5660 5659 5659 5658 5658 5658 5658 5657 5657 5657 5658 5658 5658 5658 5659 5659 5659 5659 5660 5660 5660 5660 5661 5661 5661 5661 5661 5661 5661 5661 5661 5661 5661 5661 5660 5660 5660 5660 5660 5660 5659 5659 5659 5659 5659 5658 5658 5658 5658 5658
5675 5674 5673 5673 5672 5671 5670 5669 5669 5668 5667 5666 5665 5665 5664 5663 5663 5663 5662 5662 5661 5661 5661 5660 5660 5660 5660 5660 5660 5660 5659 5659 5659 5659 5658 5658 5658 5658 5657 5657 5656 5656 5656 5656 5655 5656 5656 5656 5657 5657 5657 5658 5658 5658 5658 5658 5659 5659 5659 5659 5659 5659 5659 5659 5659 5659 5659 5659 5659 5659 5659 5659 5658 5658 5658 5658 5658 5658 5658 5657 5657 5657 5657 5656 5656 5656
5672 5671 5670 5669 5668 5667 5667 5666 5666 5665 5664 5663 5662 5662 5661 5661 5660 5660 5659 5659 5658 5658 5658 5658 5658 5658 5657 5657 5657 5658 5657 5657 5656 5656 5656 5656 5655 5655 5655 5654 5654 5654 5654 5654 5654 5654 5654 5655 5655 5656 5656 5656 5657 5657 5657 5657 5657 5658 5658 5658 5658 5658 5658 5658 5658 5658 5658 5658 5658 5658 5658 5657 5657 5657 5657 5657 5656 5656 5656 5656 5655 5655 5655 5654 5654 5654
5668 5667 5666 5665 5665 5664 5663 5663 5662 5662 5661 5660 5659 5658 5658 5658 5657 5657 5657 5656 5656 5655 5655 5655 5655 5655 5655 5655 5654 5655 5655 5654 5654 5654 5654 5654 5653 5653 5653 5653 5652 5652 5652 5652 5652 5653 5653 5653 5654 5654 5654 5655 5655 5655 5656 5656 5656 5656 5656 5656 5656 5657 5657 5657 5657 5657 5656 5656 5656 5656 5656 5656 5656 5655 5655 5655 5655 5654 5654 5654 5654 5653 5653 5653 5653 5652
5664 5663 5663 5662 5662 5661 5660 5659 5659 5658 5658 5657 5656 5656 5655 5654 5654 5654 5653 5653 5653 5653 5653 5652 5652 5653 5653 5652 5652 5652 5652 5652 5651 5651 5652 5652 5651 5651 5651 5650 5650 5650 5650 5650 5650 5651 5651 5652 5652 5653 5653 5653 5654 5654 5654 5654 5654 5655 5655 5655 5655 5655 5655 5655 5655 5655 5655 5655 5655 5654 5654 5654 5654 5654 5653 5653 5653 5653 5653 5652 5652 5652 5651 5651 5651 5650
5661 5660 5659 5659 5658 5658 5657 5656 5656 5655 5655 5654 5653 5653 5652 5652 5651 5651 5651 5650 5650 5650 5650 5650 5650 5650 5650 5650 5650 5650 5649 5649 5649 5649 5649 5649 5649 5648 5648 5648 5648 5648 5648 5648 5649 5649 5650 5650 5651 5651 5652 5652 5652 5653 5653 5653 5653 5653 5653 5653 5653 5653 5653 5653 5653 5653 5653 5653 5653 5653 5653 5653 5652 5652 5652 5652 5651 5651 5651 5650 5650 5650 5650 5649 5649 5649
5658 5657 5656 5656 5656 5655 5654 5653 5652 5652 5651 5651 5650 5650 5649 5649 5648 5648 5648 5648 5648 5648 5648 5648 5648 5648 5648 5648 5647 5647 5647 5646 5646 5646 5647 5647 5647 5646 5646 5646 5646 5646 5647 5647 5647 5648 5648 5649 5649 5650 5650 5650 5651 5651 5651 5651 5652 5652 5652 5652 5652 5652 5652 5652 5652 5652 5652 5652 5652 5651 5651 5651 5651 5650 5650 5650 5649 5649 5649 5649 5648 5648 5648 5648 5647 5647
5655 5653 5653 5652 5652 5651 5651 5650 5649 5648 5648 5648 5647 5647 5646 5646 5645 5645 5645 5645 5645 5645 5645 5645 5645 5645 5645 5645 5644 5644 5644 5644 5644 5644 5644 5644 5644 5644 5644 5644 5644 5644 5645 5645 5645 5646 5647 5647 5648 5648 5648 5649 5649 5649 5650 5650 5650 5650 5650 5650 5650 5651 5651 5650 5650 5650 5650 5650 5650 5649 5649 5649 5649 5648 5648 5648 5648 5648 5647 5647 5647 5646 5646 5646 5645 5645
5651 5650 5649 5649 5648 5648 5647 5647 5646 5645 5645 5644 5644 5643 5643 5643 5643 5642 5642 5642 5642 5642 5642 5642 5642 5642 5642 5642 5642 5642 5642 5641 5641 5641 5642 5641 5642 5642 5642 5642 5642 5643 5643 5643 5644 5644 5645 5645 5646 5646 5647 5647 5648 5648 5648 5648 5648 5648 5649 5649 5649 5649 5649 5649 5648 5648 5648 5648 5648 5648 5648 5647 5647 5647 5646 5646 5646 5646 5645 5645 5645 5644 5644 5644 5643 5643
5648 5647 5646 5646 5645 5644 5644 5643 5643 5642 5642 5641 5641 5640 5640 5639 5639 5639 5639 5639 5639 5639 5639 5639 5639 5639 5640 5640 5639 5639 5639 5639 5639 5639 5639 5639 5639 5640 5640 5640 5640 5641 5642 5642 5642 5643 5643 5644 5644 5645 5645 5645 5646 5646 5646 5647 5647 5647 5647 5647 5647 5647 5647 5647 5647 5647 5646 5646 5646 5646 5646 5645 5645 5645 5644 5644 5644 5644 5643 5643 5643 5643 5642 5642 5642 5641
5644 5644 5643 5643 5642 5641 5641 5640 5639 5639 5638 5638 5637 5637 5637 5636 5636 5636 5636 5636 5636 5636 5637 5637 5637 5637 5637 5637 5637 5637 5636 5636 5636 5637 5637 5637 5637 5638 5638 5638 5639 5639 5640 5640 5640 5641 5642 5642 5643 5643 5643 5644 5644 5644 5644 5645 5645 5645 5645 5645 5645 5645 5645 5645 5645 5645 5644 5644 5644 5644 5644 5643 5643 5643 5643 5642 5642 5642 5642 5641 5641 5641 5640 5640 5639 5639
5641 5641 5640 5639 5639 5638 5638 5637 5636 5636 5635 5635 5634 5634 5633 5633 5633 5633 5633 5634 5634 5634 5634 5634 5634 5634 5634 5634 5634 5634 5634 5634 5634 5634 5635 5635 5635 5635 5636 5636 5637 5638 5638 5638 5639 5639 5640 5640 5641 5641 5642 5642 5642 5643 5643 5643 5643 5643 5643 5643 5643 5643 5643 5643 5643 5643 5643 5643 5642 5642 5642 5642 5641 5641 5641 5640 5640 5640 5639 5639 5639 5638 5638 5638 5638 5637
5638 5638 5637 5636 5636 5635 5634 5634 5633 5633 5632 5632 5631 5631 5631 5631 5631 5631 5631 5631 5632 5632 5631 5631 5631 5632 5632 5632 5632 5632 5632 5632 5632 5632 5632 5632 5633 5633 5634 5634 5635 5636 5636 5637 5637 5638 5638 5639 5639 5639 5640 5640 5640 5641 5641 5641 5641 5642 5642 5642 5642 5642 5642 5641 5641 5641 5641 5641 5640 5640 5640 5640 5639 5639 5639 5638 5638 5638 5638 5637 5637 5636 5636 5636 5635 5635
5635 5634 5634 5633 5633 5632 5631 5631 5630 5630 5629 5628 5628 5628 5628 5628 5628 5628 5628 5629 5629 5629 5629 5629 5629 5629 5629 5629 5629 5630 5630 5630 5629 5629 5629 5630 5630 5631 5632 5633 5633 5634 5635 5635 5636 5636 5637 5637 5637 5638 5638 5638 5639 5639 5639 5639 5640 5640 5640 5640 5640 5640 5640 5639 5639 5639 5639 5639 5638 5638 5638 5638 5638 5637 5637 5637 5636 5636 5635 5635 5635 5634 5634 5633 5633 5633
5632 5631 5631 5630 5629 5629 5628 5628 5627 5627 5626 5626 5625 5625 5625 5625 5626 5626 5626 5626 5627 5627 5626 5627 5627 5627 5627 5627 5627 5628 5628 5627 5627 5627 5627 5628 5628 5629 5631 5631 5632 5632 5633 5633 5634 5635 5635 5635 5636 5636 5636 5637 5637 5637 5638 5638 5638 5638 5638 5638 5638 5638 5638 5638 5638 5638 5637 5637 5637 5637 5636 5636 5636 5635 5635 5634 5634 5633 5633 5633 5633 5632 5632 5631 5631 5630
5629 5628 5628 5627 5626 5626 5625 5625 5624 5624 5623 5623 5623 5623 5623 5623 5623 5623 5623 5623 5624 5624 5624 5624 5624 5624 5624 5625 5625 5625 5625 5625 5625 5625 5625 5626 5627 5628 5629 5629 5630 5631 5631 5632 5633 5633 5633 5634 5634 5634 5635 5635 5635 5635 5636 5636 5636 5636 5636 5636 5636 5636 5636 5636 5636 5636 5635 5635 5635 5634 5634 5634 5633 5633 5633 5632 5632 5631 5631 5631 5630 5630 5629 5629 5628 5628
5626 5625 5624 5624 5623 5623 5622 5622 5621 5621 5621 5620 5620 5620 5620 5620 5620 5621 5621 5621 5622 5622 5622 5622 5622 5622 5622 5622 5622 5622 5622 5622 5623 5623 5623 5624 5625 5626 5627 5628 5628 5629 5630 5630 5631 5631 5632 5632 5633 5633 5633 5633 5633 5634 5634 5634 5634 5634 5634 5634 5634 5634 5634 5634 5634 5633 5633 5633 5633 5633 5632 5632 5631 5631 5630 5630 5629 5629 5628 5628 5628 5627 5627 5626 5626 5625
5623 5622 5622 5621 5620 5620 5619 5619 5618 5618 5618 5618 5618 5618 5618 5618 5618 5618 5618 5619 5619 5619 5620 5620 5620 5620 5620 5620 5620 5620 5620 5620 5621 5621 5622 5623 5624 5625 5625 5626 5627 5628 5628 5628 5629 5629 5630 5630 5631 5631 5631 5631 5632 5632 5632 5632 5632 5632 5632 5632 5632 5632 5632 5632 5632 5631 5631 5631 5631 5630 5630 5629 5629 5628 5628 5628 5627 5627 5626 5626 5625 5625 5624 5623 5623 5623
5620 5619 5618 5618 5618 5617 5617 5616 5616 5616 5615 5615 5615 5615 5615 5616 5616 5616 5616 5617 5617 5617 5617 5618 5618 5618 5618 5618 5618 5618 5618 5618 5619 5619 5620 5621 5622 5623 5624 5624 5625 5626 5626 5627 5628 5628 5628 5628 5629 5629 5629 5629 5630 5630 5630 5630 5630 5630 5630 5630 5630 5630 5630 5630 5629 5629 5629 5628 5628 5628 5628 5627 5627 5626 5626 5625 5624 5624 5623 5623 5623 5622 5621 5621 5620 5620
5617 5616 5616 5615 5615 5614 5614 5614 5613 5613 5613 5613 5613 5613 5613 5613 5614 5614 5614 5614 5615 5615 5615 5615 5615 5615 5615 5615 5615 5616 5616 5617 5617 5618 5619 5620 5621 5622 5622 5623 5623 5624 5625 5625 5626 5626 5627 5627 5627 5628 5628 5628 5628 5628 5628 5628 5628 5628 5628 5628 5628 5628 5628 5628 5627 5627 5627 5626 5626 5625 5625 5624 5624 5623 5623 5623 5622 5621 5621 5620 5620 5619 5618 5618 5618 5617
5614 5613 5613 5613 5612 5612 5612 5611 5611 5611 5611 5611 5611 5611 5611 5611 5612 5612 5612 5612 5613 5613 5613 5613 5613 5613 5613 5613 5613 5614 5614 5615 5616 5616 5617 5618 5619 5620 5621 5621 5622 5623 5623 5623 5624 5624 5625 5625 5625 5626 5626 5626 5626 5626 5626 5626 5626 5626 5626 5626 5626 5625 5625 5625 5625 5624 5624 5624 5623 5623 5623 5622 5621 5621 5620 5620 5619 5618 5618 5617 5617 5616 5616 5615 5614 5614
5611 5611 5610 5610 5610 5609 5609 5609 5609 5608 5608 5608 5608 5609 5609 5609 5609 5610 5610 5610 5610 5610 5610 5610 5610 5611 5611 5611 5612 5612 5613 5613 5614 5615 5616 5616 5617 5618 5619 5619 5620 5620 5621 5622 5622 5622 5623 5623 5623 5624 5624 5624 5624 5624 5624 5624 5624 5624 5624 5623 5623 5623 5623 5623 5622 5622 5622 5621 5621 5620 5620 5619 5619 5618 5618 5617 5616 5615 5615 5614 5613 5613 5612 5612 5611 5610
5608 5608 5608 5608 5607 5607 5607 5607 5607 5607 5607 5607 5607 5607 5607 5607 5607 5608 5608 5608 5608 5608 5608 5608 5608 5608 5609 5609 5610 5611 5611 5612 5613 5613 5614 5615 5615 5616 5617 5618 5618 5618 5619 5620 5620 5620 5621 5621 5621 5622 5622 5622 5622 5622 5622 5622 5622 5622 5622 5621 5621 5621 5621 5620 5620 5619 5619 5618 5618 5618 5617 5617 5616 5615 5615 5614 5613 5613 5612 5611 5610 5609 5609 5608 5608 5607
5606 5605 5605 5605 5605 5605 5604 5604 5604 5604 5604 5604 5605 5605 5605 5605 5605 5606 5606 5606 5606 5606 5606 5606 5606 5607 5607 5608 5608 5609 5610 5610 5611 5612 5613 5613 5614 5614 5615 5616 5616 5617 5617 5618 5618 5619 5619 5619 5619 5619 5619 5620 5620 5620 5620 5620 5620 5620 5619 5619 5619 5618 5618 5618 5617 5617 5616 5616 5615 5615 5614 5613 5613 5612 5612 5611 5610 5609 5608 5608 5607 5606 5605 5604 5604 5603
5603 5603 5603 5603 5603 5603 5602 5602 5602 5602 5602 5603 5603 5603 5603 5603 5603 5603 5604 5604 5604 5604 5604 5604 5604 5605 5605 5606 5607 5608 5608 5609 5609 5610 5611 5611 5612 5613 5613 5614 5614 5615 5615 5616 5616 5617 5617 5617 5617 5617 5617 5618 5618 5618 5618 5618 5618 5618 5617 5617 5617 5616 5616 5615 5615 5614 5614 5613 5613 5612 5611 5611 5610 5609 5608 5608 5607 5606 5605 5604 5603 5603 5602 5601 5600 5599
5600 5600 5600 5600 5600 5600 5600 5600 5600 5600 5600 5600 5600 5601 5601 5601 5601 5602 5602 5602 5602 5602 5602 5602 5603 5603 5604 5604 5605 5606 5607 5607 5608 5608 5609 5610 5610 5611 5611 5612 5613 5613 5613 5614 5614 5615 5615 5615 5615 5615 5615 5615 5615 5615 5616 5616 5615 5615 5615 5615 5614 5614 5613 5613 5612 5612 5611 5610 5610 5609 5608 5608 5607 5606 5605 5604 5604 5603 5602 5601 5600 5599 5598 5598 5597 5595
5598 5598 5598 5598 5598 5598 5598 5598 5598 5598 5598 5598 5598 5598 5599 5599 5599 5599 5600 5600 5600 5600 5600 5600 5601 5601 5602 5603 5603 5604 5605 5606 5606 5607 5607 5608 5608 5609 5609 5610 5611 5611 5612 5612 5612 5613 5613 5613 5613 5613 5613 5613 5613 5613 5613 5613 5613 5613 5613 5612 5612 5612 5611 5610 5609 5609 5608 5608 5607 5606 5605 5604 5604 5603 5602 5602 5601 5600 5599 5598 5597 5596 5595 5594 5593 5592
5595 5595 5596 5596 5595 5595 5595 5596 5596 5596 5596 5596 5596 5597 5597 5597 5597 5598 5598 5598 5598 5598 5598 5598 5599 5600 5600 5601 5602 5603 5603 5604 5604 5605 5606 5606 5607 5607 5608 5608 5609 5609 5609 5610 5610 5610 5611 5611 5611 5611 5611 5611 5611 5611 5611 5611 5611 5610 5610 5610 5609 5609 5608 5608 5607 5606 5605 5604 5604 5603 5602 5601 5601 5600 5599 5598 5598 5597 5596 5595 5594 5593 5592 5591 5590 5589
5593 5593 5593 5593 5593 5593 5593 5593 5593 5593 5594 5594 5594 5594 5595 5595 5595 5595 5596 5596 5596 5596 5596 5597 5597 5598 5599 5600 5601 5601 5602 5602 5603 5603 5604 5604 5605 5605 5606 5606 5607 5607 5608 5608 5608 5608 5608 5608 5609 5609 5609 5609 5609 5609 5608 5608 5608 5608 5607 5607 5606 5606 5605 5605 5604 5603 5603 5602 5601 5600 5599 5598 5597 5597 5596 5595 5594 5593 5593 5592 5591 5590 5589 5588 5587 5586
5590 5590 5590 5590 5591 5591 5591 5591 5591 5591 5592 5592 5592 5593 5593 5593 5593 5593 5593 5593 5593 5594 5594 5595 5596 5597 5598 5598 5599 5599 5600 5600 5601 5602 5602 5603 5603 5604 5604 5604 5605 5605 5605 5606 5606 5606 5607 5607 5607 5607 5606 5606 5606 5606 5606 5606 5606 5606 5605 5604 5603 5603 5603 5602 5601 5600 5600 5599 5598 5597 5596 5595 5594 5593 5593 5592 5591 5591 5590 5589 5588 5587 5586 5585 5584 5583
5588 5588 5588 5588 5588 5588 5588 5589 5589 5589 5589 5589 5590 5590 5590 5590 5591 5591 5591 5591 5592 5592 5593 5593 5594 5595 5596 5597 5597 5598 5598 5599 5599 5600 5600 5601 5601 5602 5602 5603 5603 5603 5603 5603 5604 5604 5604 5604 5604 5604 5604 5604 5604 5604 5604 5604 5603 5603 5602 5602 5601 5600 5599 5598 5598 5597 5596 5596 5595 5594 5593 5592 5591 5591 5590 5589 5588 5588 5587 5586 5585 5584 5583 5583 5582 5581
5585 5585 5585 5586 5586 5586 5586 5587 5587 5587 5587 5587 5588 5588 5588 5588 5588 5588 5588 5589 5589 5590 5591 5592 5593 5593 5594 5595 5595 5596 5597 5597 5598 5598 5598 5599 5599 5600 5600 5600 5601 5601 5601 5601 5601 5602 5602 5602 5602 5602 5602 5602 5602 5602 5602 5601 5601 5600 5600 5599 5598 5597 5597 5596 5595 5594 5593 5593 5592 5591 5590 5589 5589 5588 5588 5587 5586 5585 5584 5583 5583 5582 5581 5580 5579 5578
5582 5583 5583 5583 5583 5584 5584 5584 5584 5584 5585 5585 5585 5585 5585 5585 5586 5586 5586 5587 5588 5588 5589 5590 5591 5592 5592 5593 5594 5594 5595 5595 5596 5596 5597 5597 5597 5598 5598 5598 5598 5599 5599 5599 5599 5599 5599 5599 5599 5599 5599 5599 5599 5599 5599 5598 5598 5598 5597 5596 5596 5595 5594 5593 5592 5591 5590 5590 5589 5588 5588 5587 5586 5586 5585 5584 5583 5583 5582 5581 5580 5579 5578 5577 5576 5575
5580 5580 5580 5581 5581 5581 5582 5582 5582 5582 5583 5583 5583 5583 5583 5583 5583 5584 5584 5585 5586 5587 5588 5588 5589 5590 5591 5591 5592 5592 5593 5593 5594 5594 5594 5595 5595 5595 5596 5596 5596 5597 5597 5597 5597 5597 5597 5597 5597 5597 5597 5597 5597 5597 5596 5596 5595 5595 5594 5593 5593 5592 5591 5591 5590 5589 5588 5587 5586 5585 5585 5584 5583 5583 5582 5582 5581 5580 5579 5578 5577 5576 5575 5574 5573 5572
5577 5577 5578 5578 5578 5579 5579 5580 5580 5580 5580 5580 5580 5580 5580 5581 5581 5582 5583 5583 5584 5585 5586 5587 5588 5588 5589 5589 5590 5590 5591 5591 5592 5592 5592 5593 5593 5593 5593 5594 5594 5594 5594 5594 5594 5595 5594 5594 5594 5594 5594 5594 5594 5594 5594 5593 5593 5592 5591 5591 5590 5589 5589 5588 5587 5586 5585 5584 5583 5583 5582 5582 5581 5580 5580 5579 5578 5578 5576 5575 5574 5573 5572 5571 5570 5569
5574 5574 5575 5575 5576 5577 5577 5578 5578 5578 5578 5578 5578 5578 5578 5579 5579 5580 5581 5582 5583 5583 5584 5585 5586 5586 5587 5587 5588 5588 5588 5589 5589 5590 5590 5590 5591 5591 5591 5591 5592 5592 5592 5592 5592 5592 5592 5592 5592 5592 5592 5592 5591 5591 5591 5590 5590 5589 5589 5588 5588 5587 5586 5585 5585 5584 5583 5582 5581 5580 5580 5579 5578 5578 5577 5576 5575 5574 5573 5573 5571 5570 5569 5568 5567 5566
5572 5572 5572 5573 5573 5574 5575 5575 5575 5575 5575 5576 5576 5576 5576 5577 5578 5578 5579 5580 5581 5582 5583 5583 5584 5584 5584 5585 5586 5586 5587 5587 5587 5588 5588 5588 5588 5588 5589 5589 5589 5590 5590 5590 5590 5590 5590 5590 5589 5589 5589 5589 5588 5588 5587 5587 5587 5587 5586 5586 5585 5584 5583 5583 5582 5581 5580 5580 5579 5578 5577 5576 5576 5575 5574 5573 5572 5571 5570 5569 5568 5567 5566 5565 5564 5563